Preview of NWS' New Version of Forecast
This preview is not operational and should not be used for support decisions.

Regional Weather Roundup (RWR)

Issued by National Weather Service (NWS)

                            
000
ASUS45 KABQ 231701
RWRNM 
NEW MEXICO REGIONAL WEATHER ROUNDUP
NATIONAL WEATHER SERVICE ALBUQUERQUE NM
1100 AM MDT MON SEP 23 2019

NOTE: "FAIR" MEANS FEW OR NO CLOUDS BELOW 12,000 FEET AGL WITH NO
       SIGNIFICANT WEATHER OR OBSTRUCTIONS TO VISION.

      THIS PRODUCT IS RELEASED AS TWO VERSIONS.  ONE VERSION NEAR
      THE TOP OF THE HOUR CONTAINING PRELIMINARY DATA FROM ALBUQUERQUE
      AND OTHER STATIONS.  A FINAL VERSION WITH ADDITIONAL DATA IS 
      ISSUED ABOUT 10 MINUTES AFTER THE HOUR.
 
NMZ501-503-504-510>518-231800-
NORTHWEST PLATEAU/NORTHCENTRAL MOUNTAINS
  
CITY           SKY/WX    TMP DP  RH WIND       PRES   REMARKS
FARMINGTON     FAIR      60  27  28 E8        30.25R                  
LOS ALAMOS     FAIR      63  20  18 E6        30.34S                  
SANTA FE       FAIR      71  24  17 VRB3      30.28F                  
TAOS           FAIR      68  17  14 SW6       30.33                   
ANGEL FIRE     FAIR      65  20  17 W13G20    30.39R                  

$$
NMZ402-403-502-505>509-231800-
WESTCENTRAL MOUNTAINS/SOUTHWEST MOUNTAINS
  
CITY           SKY/WX    TMP DP  RH WIND       PRES   REMARKS
GALLUP         PTSUNNY   53  48  83 S8        30.35R                  
GRANTS         HVY RAIN  51  42  71 NW15      30.38R                  
SILVER CITY    PTSUNNY   74  57  55 S3        30.25F                  

$$
NMZ407-409-411-412-231800-
SOUTHERN DESERTS
  
CITY           SKY/WX    TMP DP  RH WIND       PRES   REMARKS
DEMING         FAIR      77  59  53 SW7       30.19S                  
LAS CRUCES     FAIR      79  58  48 S6        30.20F                  
HOLLOMAN AFB   FAIR      80  58  46 S9        30.19S                  
ALAMOGORDO     FAIR      81  57  44 S10       30.18F                  
T OR C         FAIR      77  54  44 MISG      30.20S                  

$$
NMZ519>523-231800-
CENTRAL VALLEYS/CENTRAL HIGHLANDS
  
CITY           SKY/WX    TMP DP  RH WIND       PRES   REMARKS
ALBUQUERQUE    FAIR      70  39  32 VRB3      30.25R                  
DOUBLE EAGLE   MOSUNNY   70  36  28 CALM      30.27S                  
CLINES CORNERS FAIR      71  40  32 SW16G23   30.32F                  
BELEN          FAIR      70  22  16 NW3       30.25S                  
SOCORRO        FAIR      73  46  37 SE5       30.21S                  

$$
NMZ524>526-539-540-231800-
SOUTHCENTRAL MOUNTAINS
  
CITY           SKY/WX    TMP DP  RH WIND       PRES   REMARKS
RUIDOSO        FAIR      72  36  26 NW3       30.34F                  

$$
NMZ527>531-231800-
NORTHEAST HIGHLANDS/NORTHEAST PLAINS
  
CITY           SKY/WX    TMP DP  RH WIND       PRES   REMARKS
LAS VEGAS      FAIR      76  30  18 S13G21    30.28F                  
RATON          FAIR      71  36  27 VRB6      30.22F                  
CLAYTON        FAIR      74  46  36 SW13G21   30.18F                  

$$
NMZ532>537-231800-
EASTCENTRAL PLAINS
  
CITY           SKY/WX    TMP DP  RH WIND       PRES   REMARKS
TUCUMCARI      FAIR      76  55  48 CALM      30.13F                  
CANNON AFB     SUNNY     79  60  52 S7        30.18F                  
CLOVIS AIRPORT FAIR      77  65  66 S8        30.19S                  

$$
NMZ028-029-033-538-231800-
SOUTHEAST PLAINS
  
CITY           SKY/WX    TMP DP  RH WIND       PRES   REMARKS
ROSWELL        FAIR      79  51  37 CALM      30.14S                  
ARTESIA        FAIR      79  61  53 SE5       30.15F                  
CARLSBAD       FAIR      78  66  66 CALM      30.12S                  
HOBBS          SUNNY     79  64  61 SE9       30.15F                  


$$